Location: StarHub Observatory
(35.2598°N, 77.5855°W)
Time: 20:42:48
(UTC-04:00)

Hubble Space Telescope - Pass Details

Date: 05 June 2022
Orbit: 532 x 536 km, 28.5° (Epoch: 28 June)

Event Time Altitude Azimuth Distance (km) Brightness Sun altitude
Exits shadow 03:59:06 13° 147° (SSE) 1,607 3.0 -19.5°
Drops below altitude 10° 04:00:20 10° 130° (SE) 1,775 3.4 -19.3°
Sets 04:03:36 0° 103° (ESE) 2,668 4.7 -18.9°
